Location: Coopersdale
(40.3556°N, 78.9372°W)
Time: 00:38:46
(UTC+00:00)

Tiros 1 - Pass Details

Date: 22 January 2021
Orbit: 630 x 664 km, 48.4° (Epoch: 06 March)

Event Time Altitude Azimuth Distance (km) Brightness Sun altitude
Rises 00:49:43 0° 254° (WSW) 2,919 11.7 -28.1°
Reaches altitude 10° 00:52:05 10° 259° (WSW) 2,009 10.6 -28.5°
Enters shadow 00:55:35 44° 292° (WNW) 877 8.1 -29.2°
